Location: Stara Lesna
(49.1528°N, 20.2911°E)
Time: 02:22:20
(UTC+02:00)

CZ-2D R/B - Pass Details

Date: 21 September 2019
Orbit: 552 x 640 km, 97.8° (Epoch: 15 October)

Event Time Altitude Azimuth Distance (km) Brightness Sun altitude
Rises 03:46:32 0° 13° (NNE) 2,779 7.6 -24.9°
Reaches altitude 10° 03:48:42 10° 13° (NNE) 1,867 6.6 -24.6°
Enters shadow 03:52:16 69° 8° (N) 603 3.5 -24.1°
